Simultaneous Nadir Overpasses (SNOs) Predictions

Prediction of SNOs between GOES-15 and METOP-B Satellite Orbit:

Table of predicted SNOs for the next 14.0 days since TLE Epoch: 8/2/2019
Index Date Time (GOES-15) GOES-15 Lat,Lon METOP-B Lat,Lon Distance(km) Time Diff (sec)
1 08/04/2019 05:59:05 0.03,-128.30 0.16,-127.73 65.65 80
2 08/05/2019 18:20:36 0.01,-128.34 0.88,-132.29 449.25 80
3 08/06/2019 17:57:17 -0.02,-128.36 -0.24,-127.29 121.18 80
4 08/08/2019 06:18:57 -0.02,-128.37 -0.79,-131.89 399.81 80
5 08/09/2019 05:55:38 0.00,-128.39 0.32,-126.89 170.00 80
6 08/10/2019 18:17:09 0.04,-128.41 0.70,-131.45 345.89 80
7 08/11/2019 17:53:49 0.01,-128.42 -0.41,-126.45 223.96 80
8 08/13/2019 06:15:30 -0.05,-128.43 -0.61,-131.05 297.61 80
9 08/14/2019 05:52:10 -0.02,-128.44 0.50,-126.06 271.67 80
10 08/15/2019 18:13:41 0.06,-128.46 0.52,-130.61 245.05 80
11 08/16/2019 17:50:22 0.03,-128.47 -0.60,-125.62 324.43 80




NCC Satellite Simultaneous Nadir Overpasses (SNOs) Prediction Service
